This is the latest recevied weather packets stored in our database for station/object JG6YPS-13. If no packets are shown the sender has not sent any weather packets the latest 10 day(s).
| Time | Temp. | Humidity | Pressure | Rain* | Wind** | Luminosity | Snow |
|---|---|---|---|---|---|---|---|
| 1777551130 | 17.78° C | 90% | 1008.4 hPa | 0.76 mm | - | - | - |
| 1777550530 | 17.78° C | 89% | 1008.3 hPa | 0.76 mm | - | - | - |
| 1777549930 | 17.78° C | 90% | 1008.3 hPa | 0.76 mm | - | - | - |
| 1777549331 | 17.78° C | 90% | 1008.2 hPa | 0.51 mm | - | - | - |
| 1777548731 | 17.78° C | 90% | 1008.3 hPa | 0.51 mm | - | - | - |
| 1777548131 | 17.78° C | 90% | 1008.1 hPa | 0.51 mm | - | - | - |
| 1777547531 | 17.78° C | 89% | 1008.2 hPa | 0.25 mm | - | - | - |
| 1777546931 | 17.78° C | 89% | 1008.1 hPa | 0.51 mm | - | - | - |
| 1777546331 | 17.78° C | 89% | 1008.1 hPa | 0.51 mm | - | - | - |
| 1777545731 | 17.78° C | 90% | 1007.9 hPa | 0.51 mm | - | - | - |
| 1777545132 | 17.78° C | 90% | 1007.9 hPa | 0.51 mm | - | - | - |
| 1777544532 | 17.78° C | 90% | 1007.9 hPa | 0.51 mm | - | - | - |
| 1777543932 | 17.78° C | 89% | 1008.1 hPa | 0.51 mm | - | - | - |
| 1777543332 | 17.78° C | 89% | 1007.8 hPa | 0.76 mm | - | - | - |
| 1777542732 | 17.78° C | 89% | 1008.2 hPa | 2.54 mm | - | - | - |
| 1777542132 | 17.78° C | 89% | 1008.4 hPa | 2.79 mm | - | - | - |
| 1777541532 | 17.78° C | 89% | 1007.7 hPa | 2.79 mm | - | - | - |
| 1777540933 | 17.78° C | 89% | 1007.8 hPa | 2.79 mm | - | - | - |
| 1777540333 | 18.33° C | 89% | 1007.5 hPa | 2.79 mm | - | - | - |
| 1777539733 | 17.78° C | 90% | 1007.7 hPa | 2.03 mm | - | - | - |
| 1777539134 | 18.33° C | 88% | 1008.4 hPa | 0.51 mm | - | - | - |
| 1777538534 | 18.33° C | 88% | 1007.9 hPa | 0 mm | - | - | - |
| 1777537934 | 18.33° C | 87% | 1007.6 hPa | 0 mm | - | - | - |
| 1777537335 | 18.33° C | 87% | 1007.4 hPa | 0 mm | - | - | - |
| 1777536735 | 18.89° C | 86% | 1007.5 hPa | 0 mm | - | - | - |
* Rain latest hour (hover to see other rain measurements)
** Current wind speed in m/s (hover to see current wind gust speed)